1486922400.96,36000,12.44,74148.8,-11.39,-37.93,-38.29,0,*61
1486922402.21,36001,12.44,74148.5,-11.37,-38.17,-38.35,0,*60
1486922403.45,36002,12.44,74150.8,-11.39,-38.23,-38.43,0,*6B
1486922404.72,36003,12.44,74148.3,-11.39,-38.23,-38.49,0,*60
1486922405.97,36004,12.44,74146.5,-11.39,-38.23,-38.43,0,*6D
1486922407.21,36005,12.44,74148.0,-11.39,-38.11,-38.43,0,*6D
1486922408.45,36006,12.44,74150.3,-11.41,-38.05,-38.29,0,*68
1486922409.7,36007,12.44,74144.0,-11.41,-37.87,-38.23,0,*66
1486922410.93,36008,12.44,74150.5,-11.41,-38.05,-38.23,0,*6C
1486922412.2,36009,12.44,74146.0,-11.41,-37.93,-38.29,0,*67
1486922413.45,36010,12.44,74148.0,-11.39,-37.87,-38.23,0,*6F
1486922414.67,36011,12.44,74144.3,-11.39,-38.05,-38.17,0,*6C
1486922415.97,36012,12.44,74150.8,-11.37,-37.99,-38.23,0,*6C
1486922417.21,36013,12.44,74148.0,-11.39,-38.05,-38.23,0,*69
1486922418.48,36014,12.44,74148.0,-11.41,-37.93,-38.23,0,*61
1486922419.73,36015,12.44,74148.3,-11.39,-37.87,-38.23,0,*6A
1486922420.98,36016,12.44,74150.3,-11.39,-37.87,-38.23,0,*69
1486922422.21,36017,12.44,74148.0,-11.39,-37.87,-38.05,0,*6C
1486922423.45,36018,12.44,74144.5,-11.39,-37.75,-38.11,0,*6B
1486922424.67,36019,12.44,74144.5,-11.39,-37.87,-38.05,0,*62
1486922425.95,36020,12.44,74150.5,-11.39,-37.81,-38.23,0,*6A
1486922427.16,36021,12.44,74150.0,-11.41,-38.05,-38.43,0,*61
1486922428.41,36022,12.44,74148.5,-11.39,-38.23,-38.43,0,*69
1486922429.65,36023,12.44,74150.5,-11.39,-38.23,-38.43,0,*68
1486922430.89,36024,12.44,74148.8,-11.41,-38.23,-38.43,0,*60
1486922432.16,36025,12.44,74148.5,-11.39,-38.23,-38.49,0,*64
1486922433.39,36026,12.44,74148.5,-11.41,-38.11,-38.43,0,*63
1486922434.63,36027,12.44,74152.5,-11.41,-38.23,-38.55,0,*64
1486922435.86,36028,12.44,74148.0,-11.41,-38.11,-38.43,0,*6D
1486922437.12,36029,12.44,74146.8,-11.41,-38.11,-38.29,0,*60
1486922438.37,36030,12.44,74146.5,-11.39,-37.87,-38.11,0,*6C
1486922439.6,36031,12.44,74144.8,-11.41,-37.87,-38.11,0,*62
1486922440.88,36032,12.44,74150.3,-11.39,-37.93,-38.23,0,*6A
1486922442.15,36033,12.44,74148.8,-11.39,-38.11,-38.29,0,*64
1486922443.42,36034,12.44,74148.5,-11.39,-38.23,-38.49,0,*64
1486922444.66,36035,12.44,74152.3,-11.41,-38.05,-38.29,0,*68
1486922445.92,36036,12.44,74150.5,-11.41,-37.93,-38.29,0,*6B
1486922447.17,36037,12.44,74148.8,-11.39,-38.11,-38.43,0,*6C
1486922448.46,36038,12.44,74150.5,-11.43,-38.29,-38.49,0,*6F
1486922449.71,36039,12.44,74148.8,-11.41,-38.11,-38.49,0,*67
1486922450.98,36040,12.44,74150.0,-11.41,-38.29,-38.49,0,*62
1486922452.25,36041,12.44,74150.8,-11.43,-38.29,-38.55,0,*6C
1486922453.51,36042,12.44,74148.0,-11.41,-37.93,-38.23,0,*62
1486922454.75,36043,12.44,74150.0,-11.41,-38.05,-38.29,0,*69
1486922456.01,36044,12.44,74148.0,-11.41,-38.11,-38.29,0,*6B
1486922457.25,36045,12.44,74146.8,-11.43,-38.17,-38.35,0,*63
1486922458.51,36046,12.44,74146.8,-11.41,-37.93,-38.29,0,*6C
1486922459.77,36047,12.44,74148.3,-11.43,-38.17,-38.49,0,*6A
1486922461.01,36048,12.44,74144.5,-11.41,-38.05,-38.29,0,*62
1486922462.25,36049,12.44,74152.0,-11.43,-38.17,-38.35,0,*6F
1486922463.49,36050,12.44,74148.5,-11.41,-38.05,-38.29,0,*6B
1486922464.75,36051,12.44,74148.3,-11.41,-38.11,-38.29,0,*6F
1486922465.99,36052,12.44,74150.5,-11.43,-38.17,-38.35,0,*65
1486922467.25,36053,12.44,74146.0,-11.43,-37.93,-38.17,0,*67
1486922468.46,36054,12.44,74148.5,-11.41,-38.05,-38.43,0,*63
1486922469.72,36055,12.44,74144.8,-11.43,-38.17,-38.49,0,*69
1486922470.96,36056,12.44,74150.3,-11.41,-38.11,-38.43,0,*64
1486922472.25,36057,12.44,74144.3,-11.43,-38.29,-38.49,0,*66
1486922473.49,36058,12.44,74148.5,-11.43,-38.17,-38.55,0,*69
1486922474.75,36059,12.44,74146.3,-11.41,-38.11,-38.29,0,*67
1486922476.04,36060,12.44,74148.3,-11.43,-38.29,-38.49,0,*62
1486922477.33,36061,12.44,74150.5,-11.43,-38.29,-38.49,0,*63
1486922478.59,36062,12.44,74150.0,-11.43,-38.11,-38.35,0,*60
1486922479.85,36063,12.44,74150.0,-11.43,-38.17,-38.49,0,*6C
1486922481.14,36064,12.44,74146.8,-11.43,-38.29,-38.49,0,*66
1486922482.41,36065,12.44,74150.5,-11.43,-38.17,-38.49,0,*6A
1486922483.67,36066,12.44,74150.0,-11.45,-38.29,-38.49,0,*62
1486922484.92,36067,12.44,74150.8,-11.47,-38.17,-38.43,0,*66
1486922486.13,36068,12.44,74146.8,-11.45,-38.17,-38.55,0,*6C
1486922487.37,36069,12.44,74150.5,-11.47,-38.05,-38.43,0,*6B
1486922488.64,36070,12.44,74150.0,-11.45,-38.11,-38.29,0,*68
1486922489.88,36071,12.44,74148.0,-11.45,-38.11,-38.35,0,*64
1486922491.14,36072,12.44,74148.8,-11.47,-38.23,-38.43,0,*65
1486922492.36,36073,12.44,74148.3,-11.45,-38.17,-38.35,0,*60
1486922493.62,36074,12.44,74150.3,-11.47,-38.23,-38.43,0,*63
1486922494.86,36075,12.44,74148.3,-11.45,-38.23,-38.35,0,*61
1486922496.1,36076,12.44,74148.3,-11.45,-37.99,-38.35,0,*6C
1486922497.34,36077,12.44,74148.5,-11.45,-38.11,-38.35,0,*62
1486922498.58,36078,12.44,74150.3,-11.45,-38.11,-38.35,0,*6D
1486922499.82,36079,12.44,74146.0,-11.47,-37.87,-38.17,0,*6E
1486922501.06,36080,12.44,74148.8,-11.45,-37.81,-38.17,0,*6C
1486922502.28,36081,12.44,74148.3,-11.45,-38.17,-38.43,0,*6C
1486922503.5,36082,12.44,74148.3,-11.45,-38.17,-38.55,0,*68
1486922504.76,36083,12.44,74150.8,-11.45,-38.29,-38.49,0,*69
1486922506.03,36084,12.44,74148.5,-11.47,-38.23,-38.61,0,*6C
1486922507.24,36085,12.44,74144.3,-11.45,-38.17,-38.35,0,*69
1486922508.51,36086,12.44,74148.8,-11.45,-38.29,-38.49,0,*6C
1486922509.75,36087,12.44,74148.8,-11.45,-38.29,-38.35,0,*66
1486922510.99,36088,12.44,74144.3,-11.47,-38.35,-38.43,0,*67
1486922512.23,36089,12.44,74150.0,-11.47,-38.17,-38.43,0,*66
1486922513.47,36090,12.44,74144.8,-11.47,-38.17,-38.43,0,*6E
1486922514.75,36091,12.44,74148.3,-11.47,-37.81,-38.17,0,*6E
1486922516.02,36092,12.44,74150.8,-11.47,-37.81,-37.87,0,*6B
1486922517.26,36093,12.44,74144.5,-11.45,-37.57,-37.81,0,*65
1486922518.52,36094,12.44,74148.5,-11.47,-37.45,-37.69,0,*65
1486922519.76,36095,12.44,74150.5,-11.45,-37.63,-37.75,0,*6F
1486922521.0,36096,12.44,74152.5,-11.45,-37.45,-37.63,0,*6F
1486922522.24,36097,12.44,74146.5,-11.45,-37.21,-37.57,0,*6B
1486922523.48,36098,12.44,74154.0,-11.45,-37.39,-37.57,0,*6D
1486922524.75,36099,12.44,74148.0,-11.43,-37.45,-37.63,0,*66
1486922526.04,36100,12.44,74150.8,-11.43,-37.93,-38.29,0,*6D
1486922527.3,36101,12.44,74148.0,-11.43,-37.75,-38.11,0,*6F
1486922528.56,36102,12.44,74148.0,-11.45,-37.63,-37.81,0,*6B
1486922529.8,36103,12.44,74148.5,-11.41,-37.87,-38.23,0,*63
1486922531.09,36104,12.44,74148.3,-11.43,-37.81,-38.11,0,*61
1486922532.39,36105,12.44,74152.3,-11.43,-37.99,-38.29,0,*62
1486922533.65,36106,12.44,74150.5,-11.43,-37.93,-38.17,0,*66
1486922534.88,36107,12.44,74150.8,-11.41,-38.05,-38.23,0,*62
1486922536.17,36108,12.44,74152.0,-11.43,-38.11,-38.49,0,*66
1486922537.46,36109,12.44,74150.0,-11.43,-38.11,-38.49,0,*67
1486922538.72,36110,12.44,74148.0,-11.43,-37.99,-38.35,0,*6B
1486922539.98,36111,12.44,74152.0,-11.43,-37.99,-38.17,0,*6A
1486922541.24,36112,12.44,74150.0,-11.43,-37.75,-37.93,0,*68
1486922542.48,36113,12.44,74150.5,-11.41,-37.87,-38.11,0,*63
1486922543.76,36114,12.44,74150.3,-11.43,-38.11,-38.29,0,*6D
1486922545.0,36115,12.44,74148.5,-11.41,-38.05,-38.29,0,*6B
1486922546.29,36116,12.44,74148.5,-11.43,-38.23,-38.49,0,*68
1486922547.55,36117,12.44,74148.8,-11.43,-38.17,-38.49,0,*6E
1486922548.81,36118,12.44,74150.5,-11.43,-38.17,-38.49,0,*61
1486922550.08,36119,12.44,74150.5,-11.43,-38.11,-38.35,0,*6D
1486922551.37,36120,12.44,74150.8,-11.43,-37.93,-38.29,0,*6F
1486922552.65,36121,12.44,74148.8,-11.43,-38.11,-38.29,0,*6B
1486922553.89,36122,12.44,74150.5,-11.43,-38.17,-38.35,0,*63
1486922555.13,36123,12.44,74152.5,-11.45,-38.11,-38.35,0,*62
1486922556.43,36124,12.44,74152.5,-11.43,-37.81,-37.99,0,*6C
1486922557.72,36125,12.44,74152.8,-11.43,-37.99,-38.29,0,*60
1486922559.01,36126,12.44,74148.8,-11.43,-37.93,-38.29,0,*69
1486922560.3,36127,12.44,74148.8,-11.43,-37.99,-38.29,0,*62
1486922561.56,36128,12.44,74148.0,-11.43,-37.99,-38.17,0,*60
1486922562.86,36129,12.44,74154.3,-11.43,-37.81,-38.11,0,*6E
1486922564.12,36130,12.44,74148.8,-11.43,-37.75,-37.99,0,*62
1486922565.41,36131,12.44,74148.0,-11.43,-37.63,-37.81,0,*6D
1486922566.69,36132,12.44,74148.5,-11.43,-37.63,-37.93,0,*6D
1486922567.93,36133,12.44,74148.3,-11.43,-37.57,-37.87,0,*6E
1486922569.19,36134,12.44,74150.0,-11.41,-37.69,-37.93,0,*63
1486922570.45,36135,12.44,74150.3,-11.41,-37.69,-37.93,0,*62
1486922571.68,36136,12.44,74150.5,-11.41,-37.75,-38.11,0,*69
1486922572.92,36137,12.44,74150.8,-11.41,-38.05,-38.23,0,*61
1486922574.16,36138,12.44,74150.8,-11.41,-38.17,-38.29,0,*67
1486922575.42,36139,12.44,74150.0,-11.41,-37.99,-38.29,0,*6F
1486922576.69,36140,12.44,74150.8,-11.43,-37.99,-38.35,0,*6E
1486922577.98,36141,12.44,74150.8,-11.43,-37.99,-38.29,0,*62
1486922579.24,36142,12.44,74148.0,-11.43,-37.93,-38.17,0,*66
1486922580.48,36143,12.44,74148.5,-11.41,-37.75,-38.23,0,*6A
1486922581.74,36144,12.44,74150.8,-11.43,-37.81,-38.17,0,*63
1486922582.95,36145,12.44,74150.5,-11.41,-37.75,-38.05,0,*68
1486922584.21,36146,12.44,74150.3,-11.41,-37.81,-38.11,0,*65
1486922585.45,36147,12.44,74150.0,-11.41,-37.87,-38.11,0,*62
1486922586.68,36148,12.44,74150.0,-11.41,-37.87,-38.11,0,*6D
1486922587.92,36149,12.44,74148.8,-11.41,-37.87,-38.11,0,*6C
1486922589.16,36150,12.44,74150.8,-11.41,-37.87,-38.23,0,*65
1486922590.4,36151,12.44,74148.3,-11.41,-37.75,-38.23,0,*69
1486922591.64,36152,12.44,74150.8,-11.41,-37.87,-38.23,0,*67
1486922592.9,36153,12.44,74150.8,-11.41,-37.93,-38.11,0,*62
1486922594.16,36154,12.44,74154.3,-11.41,-37.93,-38.29,0,*6E
1486922595.42,36155,12.44,74152.8,-11.43,-38.11,-38.35,0,*65
1486922596.69,36156,12.44,74150.5,-11.41,-38.11,-38.29,0,*69
1486922597.92,36157,12.44,74150.0,-11.41,-38.11,-38.43,0,*64
1486922599.18,36158,12.44,74152.8,-11.43,-37.99,-38.35,0,*67
1486922600.43,36159,12.44,74150.8,-11.41,-37.87,-38.23,0,*6C
1486922601.72,36160,12.44,74148.8,-11.43,-37.93,-38.29,0,*6B
1486922602.92,36161,12.44,74148.5,-11.41,-37.75,-38.05,0,*6E
1486922604.14,36162,12.44,74150.8,-11.39,-37.75,-38.05,0,*62
1486922605.35,36163,12.44,74148.8,-11.41,-37.87,-38.05,0,*61
1486922606.59,36164,12.44,74148.3,-11.41,-37.87,-38.23,0,*62
1486922607.88,36165,12.44,74150.8,-11.43,-37.81,-38.11,0,*66
1486922609.17,36166,12.44,74148.8,-11.43,-38.11,-38.29,0,*68
1486922610.43,36167,12.44,74148.8,-11.41,-37.93,-38.23,0,*64
1486922611.68,36168,12.44,74150.5,-11.41,-37.87,-38.23,0,*6E
1486922612.92,36169,12.44,74150.0,-11.41,-37.87,-38.23,0,*6F
1486922614.16,36170,12.44,74150.3,-11.41,-37.87,-38.11,0,*66
1486922615.38,36171,12.44,74154.8,-11.41,-37.75,-38.11,0,*6A
1486922616.59,36172,12.44,74148.0,-11.41,-37.75,-38.05,0,*6C
1486922617.79,36173,12.44,74150.3,-11.41,-37.75,-38.05,0,*6D
1486922619.08,36174,12.44,74150.3,-11.43,-37.99,-38.29,0,*64
1486922620.38,36175,12.44,74154.0,-11.43,-37.99,-38.29,0,*65
1486922621.61,36176,12.44,74150.8,-11.41,-38.05,-38.29,0,*6E
1486922622.9,36177,12.44,74150.8,-11.43,-38.11,-38.49,0,*6E
1486922624.16,36178,12.44,74152.8,-11.43,-38.17,-38.49,0,*67
1486922625.45,36179,12.44,74150.0,-11.43,-38.11,-38.49,0,*60
1486922626.68,36180,12.44,74148.5,-11.41,-38.11,-38.43,0,*6E
1486922627.89,36181,12.44,74152.3,-11.41,-38.35,-38.55,0,*6E
1486922629.16,36182,12.44,74152.8,-11.43,-38.29,-38.35,0,*64
1486922630.42,36183,12.44,74150.5,-11.43,-38.11,-38.35,0,*6E
1486922631.68,36184,12.44,74150.3,-11.43,-38.11,-38.35,0,*69
1486922632.95,36185,12.44,74150.5,-11.43,-37.99,-38.35,0,*67
1486922634.21,36186,12.44,74148.3,-11.41,-37.93,-38.29,0,*61
1486922635.51,36187,12.44,74152.5,-11.43,-37.81,-37.99,0,*65
1486922636.77,36188,12.44,74152.5,-11.41,-37.99,-38.23,0,*6F
1486922638.06,36189,12.44,74150.0,-11.43,-38.11,-38.29,0,*69
1486922639.32,36190,12.44,74150.8,-11.43,-38.11,-38.35,0,*6C
1486922640.55,36191,12.44,74148.5,-11.41,-37.75,-38.11,0,*64
1486922641.84,36192,12.44,74154.3,-11.43,-38.11,-38.29,0,*63
1486922643.1,36193,12.44,74148.3,-11.43,-38.11,-38.35,0,*6F
1486922644.36,36194,12.44,74148.8,-11.43,-37.93,-38.35,0,*6D
1486922645.66,36195,12.44,74148.0,-11.43,-37.81,-38.29,0,*62
1486922646.93,36196,12.44,74150.8,-11.43,-37.81,-38.17,0,*6C
1486922648.2,36197,12.44,74152.3,-11.43,-37.81,-38.17,0,*6D
1486922649.49,36198,12.44,74154.0,-11.43,-37.81,-38.11,0,*64
1486922650.75,36199,12.44,74150.8,-11.43,-37.99,-38.17,0,*6A
1486922652.05,36200,12.44,74152.8,-11.43,-37.81,-37.99,0,*69
1486922653.34,36201,12.44,74150.5,-11.43,-37.81,-38.29,0,*6C
1486922654.61,36202,12.44,74150.8,-11.43,-37.81,-38.17,0,*62
1486922655.9,36203,12.44,74150.0,-11.43,-37.93,-38.29,0,*6D
1486922657.19,36204,12.44,74150.8,-11.43,-38.11,-38.29,0,*6F
1486922658.48,36205,12.44,74150.0,-11.43,-37.99,-38.29,0,*61
1486922659.71,36206,12.44,74152.8,-11.41,-37.75,-37.93,0,*6C
1486922660.98,36207,12.44,74150.0,-11.43,-37.81,-38.17,0,*67
1486922662.27,36208,12.44,74150.0,-11.43,-37.99,-38.29,0,*6C
1486922663.5,36209,12.44,74148.5,-11.41,-37.75,-37.93,0,*63
1486922664.77,36210,12.44,74148.3,-11.43,-37.93,-38.17,0,*62
1486922666.05,36211,12.44,74148.5,-11.43,-38.11,-38.29,0,*6B
1486922667.32,36212,12.44,74150.5,-11.43,-37.81,-38.17,0,*63
1486922668.59,36213,12.44,74148.3,-11.43,-37.81,-38.17,0,*62
1486922669.86,36214,12.44,74152.0,-11.43,-37.81,-38.17,0,*65
1486922671.09,36215,12.44,74150.3,-11.41,-37.75,-37.93,0,*6E
1486922672.38,36216,12.44,74150.3,-11.43,-37.93,-38.29,0,*69
1486922673.64,36217,12.44,74152.0,-11.43,-37.99,-38.17,0,*6F
1486922674.84,36218,12.44,74148.5,-11.41,-37.75,-38.05,0,*63
1486922676.07,36219,12.44,74148.8,-11.41,-37.75,-38.11,0,*67
1486922677.34,36220,12.44,74150.0,-11.43,-37.81,-38.17,0,*62
1486922678.64,36221,12.44,74150.3,-11.43,-37.81,-37.99,0,*6A
1486922679.9,36222,12.44,74148.5,-11.43,-37.57,-37.81,0,*6B
1486922681.2,36223,12.44,74154.5,-11.43,-37.81,-37.99,0,*68
1486922682.44,36224,12.44,74152.8,-11.41,-37.63,-37.87,0,*6E
1486922683.65,36225,12.44,74152.0,-11.41,-37.57,-37.75,0,*65
1486922684.89,36226,12.44,74148.5,-11.41,-37.69,-37.87,0,*66
1486922686.12,36227,12.44,74150.0,-11.41,-37.75,-38.11,0,*6A
1486922687.32,36228,12.44,74152.5,-11.41,-37.75,-38.05,0,*60
1486922688.62,36229,12.44,74150.8,-11.43,-37.81,-38.29,0,*66
1486922689.85,36230,12.44,74150.0,-11.41,-37.75,-38.11,0,*6C
1486922691.11,36231,12.44,74150.0,-11.41,-37.93,-38.23,0,*64
1486922692.4,36232,12.44,74148.3,-11.43,-37.99,-38.29,0,*65
1486922693.62,36233,12.44,74150.0,-11.41,-37.75,-37.87,0,*6F
1486922694.85,36234,12.44,74152.8,-11.41,-37.51,-37.75,0,*63
1486922696.11,36235,12.44,74154.0,-11.41,-37.39,-37.69,0,*61
1486922697.32,36236,12.44,74150.3,-11.41,-37.57,-37.87,0,*6A
1486922698.56,36237,12.44,74150.3,-11.39,-37.69,-37.75,0,*64
1486922699.83,36238,12.44,74150.5,-11.39,-37.69,-38.11,0,*66
1486922701.05,36239,12.44,74150.8,-11.39,-37.75,-38.05,0,*6F
1486922702.29,36240,12.44,74148.3,-11.39,-37.75,-37.93,0,*61
1486922703.55,36241,12.44,74152.0,-11.39,-37.69,-37.69,0,*68
1486922704.77,36242,12.44,74150.3,-11.39,-37.57,-37.75,0,*6B
1486922705.99,36243,12.44,74146.5,-11.39,-37.57,-37.75,0,*6A
1486922707.24,36244,12.44,74152.0,-11.39,-37.69,-37.87,0,*6D
1486922708.49,36245,12.44,74152.0,-11.39,-37.51,-37.75,0,*6A
1486922709.73,36246,12.44,74152.3,-11.39,-37.69,-38.05,0,*6A
1486922710.95,36247,12.44,74150.3,-11.39,-37.75,-38.05,0,*66
1486922712.23,36248,12.44,74150.8,-11.37,-37.51,-37.69,0,*64
1486922713.51,36249,12.44,74152.0,-11.39,-37.81,-38.11,0,*66
1486922714.81,36250,12.44,74150.8,-11.37,-37.69,-37.99,0,*69
1486922716.08,36251,12.44,74148.8,-11.37,-37.63,-37.87,0,*6D
1486922717.35,36252,12.44,74150.8,-11.37,-37.63,-37.87,0,*6E
1486922718.57,36253,12.44,74148.8,-11.39,-37.75,-38.05,0,*63
1486922719.84,36254,12.44,74148.0,-11.37,-37.69,-37.87,0,*62
1486922721.11,36255,12.44,74150.0,-11.37,-37.81,-38.05,0,*60
1486922722.38,36256,12.44,74148.8,-11.37,-37.81,-38.05,0,*63
1486922723.68,36257,12.44,74150.3,-11.37,-37.99,-38.23,0,*6F
1486922724.93,36258,12.44,74150.5,-11.37,-38.17,-38.43,0,*6F
1486922726.2,36259,12.44,74152.3,-11.37,-38.05,-38.23,0,*6B
1486922727.47,36260,12.44,74152.5,-11.39,-38.11,-38.29,0,*60
1486922728.72,36261,12.44,74150.3,-11.39,-38.23,-38.43,0,*6C
1486922729.99,36262,12.44,74152.0,-11.37,-38.17,-38.23,0,*60
1486922731.26,36263,12.44,74152.3,-11.37,-38.17,-38.23,0,*61
1486922732.53,36264,12.44,74152.5,-11.39,-38.11,-38.29,0,*64
1486922733.78,36265,12.44,74152.0,-11.39,-38.05,-38.29,0,*60
1486922735.03,36266,12.44,74150.3,-11.39,-37.87,-38.11,0,*6D
1486922736.24,36267,12.44,74150.5,-11.39,-37.75,-38.05,0,*64
1486922737.47,36268,12.44,74148.0,-11.39,-37.87,-38.17,0,*65
1486922738.69,36269,12.44,74150.5,-11.39,-37.75,-37.87,0,*6F
1486922739.94,36270,12.44,74150.5,-11.39,-37.69,-37.87,0,*6A
1486922741.19,36271,12.44,74154.5,-11.39,-37.75,-38.23,0,*67
1486922742.43,36272,12.44,74148.5,-11.39,-38.23,-38.43,0,*6E
1486922743.68,36273,12.44,74150.3,-11.39,-38.23,-38.43,0,*6F
1486922744.9,36274,12.44,74152.8,-11.39,-38.43,-38.43,0,*6E
1486922746.18,36275,12.44,74150.8,-11.39,-37.93,-38.29,0,*61
1486922747.44,36276,12.44,74152.5,-11.39,-37.93,-38.11,0,*69
1486922748.69,36277,12.44,74152.3,-11.39,-38.05,-38.23,0,*69
1486922749.96,36278,12.38,74148.5,-11.39,-38.11,-38.29,0,*69
1486922751.22,36279,12.44,74148.5,-11.41,-38.11,-38.29,0,*67
1486922752.48,36280,12.44,74148.3,-11.41,-37.93,-38.11,0,*6F
1486922753.77,36281,12.44,74154.8,-11.43,-38.11,-38.29,0,*62
1486922754.98,36282,12.44,74148.5,-11.41,-38.05,-38.43,0,*6A
1486922756.24,36283,12.44,74152.5,-11.41,-38.11,-38.29,0,*62
1486922757.5,36284,12.44,74150.8,-11.41,-38.11,-38.29,0,*65
1486922758.77,36285,12.44,74152.3,-11.41,-37.93,-38.23,0,*6B
1486922760.06,36286,12.44,74152.8,-11.43,-37.81,-37.99,0,*67
1486922761.33,36287,12.44,74152.5,-11.41,-37.81,-38.29,0,*60
1486922762.62,36288,12.44,74150.5,-11.43,-37.93,-38.11,0,*65
1486922763.87,36289,12.44,74148.5,-11.41,-37.93,-38.11,0,*66
1486922765.13,36290,12.44,74148.8,-11.41,-37.93,-38.11,0,*6E
1486922766.4,36291,12.44,74150.3,-11.41,-37.93,-38.23,0,*6E
1486922767.66,36292,12.44,74148.8,-11.43,-37.99,-38.17,0,*62
1486922768.91,36293,12.44,74150.3,-11.41,-37.93,-38.11,0,*6D
1486922770.16,36294,12.44,74150.0,-11.41,-37.87,-38.23,0,*6E
1486922771.4,36295,12.44,74150.5,-11.41,-37.87,-38.23,0,*6F
1486922772.65,36296,12.44,74148.5,-11.39,-37.87,-38.11,0,*62
1486922773.88,36297,12.44,74150.3,-11.41,-37.87,-38.11,0,*6C
1486922775.15,36298,12.44,74152.0,-11.41,-37.99,-38.29,0,*67
1486922776.39,36299,12.44,74154.0,-11.41,-38.05,-38.23,0,*66
1486922777.68,36300,12.44,74154.3,-11.43,-38.29,-38.49,0,*67
1486922778.89,36301,12.38,74148.0,-11.41,-38.17,-38.35,0,*62
1486922780.15,36302,12.44,74150.5,-11.41,-38.11,-38.29,0,*6A
1486922781.44,36303,12.44,74154.3,-11.43,-37.93,-38.29,0,*6C
1486922782.7,36304,12.44,74148.5,-11.43,-37.93,-38.17,0,*66
1486922783.93,36305,12.44,74152.0,-11.41,-37.75,-37.93,0,*6E
1486922785.19,36306,12.44,74150.8,-11.43,-37.75,-37.93,0,*6F
1486922786.45,36307,12.44,74150.3,-11.43,-37.75,-38.11,0,*6B
1486922787.69,36308,12.44,74150.0,-11.41,-37.69,-37.87,0,*6B
1486922788.96,36309,12.44,74154.5,-11.41,-37.81,-37.99,0,*63
1486922790.2,36310,12.44,74152.5,-11.41,-37.69,-37.87,0,*62
1486922791.41,36311,12.38,74150.3,-11.39,-37.75,-38.05,0,*64
1486922792.64,36312,12.44,74148.8,-11.39,-37.75,-37.87,0,*62
1486922793.84,36313,12.44,74152.5,-11.41,-37.57,-37.75,0,*61
1486922795.1,36314,12.38,74150.3,-11.41,-37.69,-37.93,0,*63
1486922796.37,36315,12.44,74148.3,-11.43,-37.81,-38.17,0,*65
1486922797.64,36316,12.44,74152.0,-11.43,-37.81,-38.17,0,*66
1486922798.85,36317,12.44,74148.8,-11.41,-37.87,-38.05,0,*60
1486922800.14,36318,12.44,74150.8,-11.43,-37.63,-37.81,0,*64
1486922801.37,36319,12.44,74148.5,-11.41,-37.69,-37.75,0,*66
1486922802.64,36320,12.44,74148.8,-11.39,-37.69,-37.93,0,*6B
1486922803.86,36321,12.44,74150.8,-11.39,-37.57,-37.75,0,*6F
1486922805.13,36322,12.44,74154.0,-11.39,-37.69,-37.93,0,*69
1486922806.35,36323,12.44,74148.8,-11.39,-37.87,-38.05,0,*68
1486922807.6,36324,12.44,74150.8,-11.37,-37.87,-38.05,0,*61
1486922808.84,36325,12.44,74148.0,-11.39,-38.05,-38.23,0,*6F
1486922810.12,36326,12.44,74148.0,-11.39,-37.93,-38.23,0,*6C
1486922811.35,36327,12.44,74150.0,-11.41,-37.75,-37.93,0,*6E
1486922812.59,36328,12.44,74152.0,-11.39,-37.57,-37.69,0,*6B
1486922813.86,36329,12.44,74150.8,-11.39,-37.63,-37.69,0,*6D
1486922815.07,36330,12.44,74148.0,-11.39,-37.75,-38.05,0,*67
1486922816.37,36331,12.38,74148.8,-11.37,-37.69,-37.81,0,*66
1486922817.61,36332,12.44,74150.0,-11.39,-37.87,-38.11,0,*6D
1486922818.89,36333,12.44,74150.5,-11.39,-37.93,-38.23,0,*68
1486922820.17,36334,12.44,74150.3,-11.37,-37.81,-37.87,0,*63
1486922821.41,36335,12.44,74150.8,-11.41,-37.69,-37.87,0,*65
1486922822.63,36336,12.44,74152.8,-11.39,-37.87,-38.05,0,*6C
1486922823.86,36337,12.44,74150.5,-11.41,-37.75,-37.93,0,*6F
1486922825.08,36338,12.44,74148.3,-11.39,-37.57,-37.75,0,*67
1486922826.3,36339,12.44,74150.5,-11.39,-37.87,-38.05,0,*63
1486922827.55,36340,12.38,74148.0,-11.39,-37.87,-38.11,0,*68
1486922828.77,36341,12.44,74150.8,-11.39,-37.57,-37.75,0,*69
1486922830.03,36342,12.38,74150.5,-11.41,-37.69,-37.93,0,*60
1486922831.27,36343,12.44,74148.5,-11.39,-37.93,-38.05,0,*6B
1486922832.55,36344,12.38,74148.0,-11.37,-37.81,-37.87,0,*64
1486922833.84,36345,12.44,74154.3,-11.37,-37.63,-37.69,0,*69
1486922835.08,36346,12.44,74148.8,-11.39,-37.57,-37.69,0,*63
1486922836.32,36347,12.44,74152.0,-11.39,-37.69,-38.05,0,*6A
1486922837.56,36348,12.44,74148.8,-11.39,-37.57,-37.69,0,*6D
1486922838.81,36349,12.44,74148.5,-11.39,-37.69,-37.87,0,*61
1486922840.1,36350,12.44,74148.8,-11.37,-37.63,-37.81,0,*6B
1486922841.39,36351,12.44,74150.8,-11.37,-37.63,-37.69,0,*6C
1486922842.69,36352,12.44,74148.8,-11.37,-37.63,-37.81,0,*69
1486922843.98,36353,12.44,74148.3,-11.37,-37.51,-37.69,0,*6F
1486922845.24,36354,12.44,74148.5,-11.35,-37.63,-37.69,0,*6B
1486922846.49,36355,12.44,74150.8,-11.35,-37.63,-37.87,0,*6A
1486922847.76,36356,12.44,74148.8,-11.35,-37.63,-37.99,0,*66
1486922849.03,36357,12.44,74152.3,-11.35,-37.63,-37.81,0,*6E
1486922850.29,36358,12.44,74150.8,-11.35,-37.63,-37.69,0,*67
1486922851.56,36359,12.44,74152.3,-11.35,-37.63,-37.81,0,*60
1486922852.83,36360,12.44,74150.0,-11.35,-37.51,-37.69,0,*6D
1486922854.06,36361,12.44,74154.0,-11.33,-37.45,-37.45,0,*61
1486922855.3,36362,12.44,74148.0,-11.33,-37.45,-37.57,0,*61
1486922856.54,36363,12.38,74150.3,-11.33,-37.45,-37.57,0,*60
1486922857.81,36364,12.44,74150.3,-11.35,-37.51,-37.81,0,*6F
1486922859.08,36365,12.44,74148.0,-11.33,-37.45,-37.63,0,*61
1486922860.34,36366,12.44,74150.5,-11.33,-37.39,-37.45,0,*6D
1486922861.58,36367,12.44,74152.5,-11.35,-37.45,-37.63,0,*65
1486922862.82,36368,12.38,74150.8,-11.35,-37.39,-37.57,0,*66
1486922864.09,36369,12.44,74150.5,-11.33,-37.39,-37.57,0,*61
1486922865.36,36370,12.38,74148.0,-11.31,-37.63,-37.93,0,*6C
1486922866.62,36371,12.38,74146.5,-11.33,-37.75,-37.93,0,*68
1486922867.88,36372,12.44,74148.3,-11.31,-37.63,-37.93,0,*6E
1486922869.18,36373,12.44,74150.5,-11.33,-37.39,-37.63,0,*6D
1486922870.42,36374,12.38,74146.0,-11.31,-37.39,-37.57,0,*6F
1486922871.64,36375,12.44,74150.3,-11.31,-37.27,-37.57,0,*61
1486922872.88,36376,12.44,74150.5,-11.31,-37.45,-37.63,0,*61
1486922874.13,36377,12.38,74146.8,-11.31,-37.51,-37.57,0,*62
1486922875.37,36378,12.44,74148.8,-11.31,-37.45,-37.63,0,*6F
1486922876.62,36379,12.44,74150.5,-11.31,-37.57,-37.63,0,*6D
1486922877.89,36380,12.38,74150.5,-11.27,-37.39,-37.51,0,*65
1486922879.14,36381,12.44,74150.3,-11.27,-37.39,-37.57,0,*62
1486922880.38,36382,12.38,74150.3,-11.31,-37.45,-37.63,0,*6A
1486922881.63,36383,12.44,74152.5,-11.27,-37.51,-37.57,0,*6E
1486922882.87,36384,12.38,74148.0,-11.31,-37.51,-37.75,0,*6E
1486922884.14,36385,12.38,74148.8,-11.27,-37.69,-37.93,0,*6B
1486922885.41,36386,12.44,74154.0,-11.31,-37.63,-37.99,0,*6F
1486922886.67,36387,12.38,74146.8,-11.27,-37.39,-37.69,0,*69
1486922887.92,36388,12.44,74150.0,-11.27,-37.51,-37.57,0,*65
1486922889.16,36389,12.38,74150.3,-11.27,-37.51,-37.57,0,*64
1486922890.41,36390,12.44,74148.8,-11.27,-37.51,-37.57,0,*6C
1486922891.65,36391,12.38,74150.3,-11.27,-37.33,-37.39,0,*61
1486922892.9,36392,12.44,74150.5,-11.27,-37.33,-37.51,0,*6C